Location: Newark
(23.3970°S, 47.6010°W)
Time: 21:56:29
(UTC+00:00)

Vanguard 1 Rocket - Visible Passes

Search period start: 25 February 2020 00:00
Search period end: 06 March 2020 00:00
Orbit: 650 x 4226 km, 34.3° (Epoch: 25 February)

Date Brightness Start Highest point End Pass type
(mag) Time Alt. Az. Time Alt. Az. Time Alt. Az.
25 Feb 10.8 01:31:10 10° W 01:49:25 28° NW 01:51:38 27° NW visible
25 Feb 10.7 21:38:48 10° WSW 22:04:39 89° SSE 22:27:12 10° ENE visible
26 Feb 10.5 00:12:48 10° WSW 00:36:28 46° NW 00:44:36 34° N visible
26 Feb 10.7 22:56:33 10° WSW 23:22:23 65° NW 23:37:36 24° NNE visible
27 Feb 11.0 01:36:00 10° W 01:51:25 21° NW 01:54:54 20° NW visible
27 Feb 10.8 21:41:41 10° WSW 22:07:10 83° NNW 22:29:57 10° NE visible
28 Feb 10.8 00:16:18 10° WSW 00:38:25 37° NW 00:47:58 26° N visible
28 Feb 10.9 22:59:35 10° WSW 23:24:30 55° NW 23:41:05 19° NNE visible
29 Feb 11.3 01:42:24 10° W 01:53:34 15° NW 01:58:25 14° NW visible
29 Feb 10.9 21:44:36 10° WSW 22:09:32 73° NW 22:32:29 10° NE visible
01 Mar 11.0 00:20:20 10° W 00:40:25 30° NW 00:51:35 19° N visible
01 Mar 11.1 23:02:50 10° WSW 23:26:32 46° NW 23:44:49 13° NNE visible
02 Mar 11.0 21:47:36 10° WSW 22:11:46 64° NW 22:34:46 10° NE visible
03 Mar 11.3 00:25:11 10° W 00:42:31 23° NW 00:55:25 12° N visible
03 Mar 11.3 23:06:28 10° WSW 23:28:36 38° NW 23:47:48 10° NNE visible
04 Mar 11.2 21:50:46 10° WSW 22:13:57 54° NW 22:36:46 10° NNE visible
05 Mar 11.5 00:31:29 10° W 00:44:51 17° NW 00:56:33 10° NNW visible
05 Mar 11.4 23:10:37 10° W 23:30:46 30° NW 23:48:57 10° N visible
